Location: Beneden-Haastrecht
(52.0012°N, 4.7557°E)
Time: 14:52:33
(UTC+00:00)

SeaSat 1 - Pass Details

Date: 24 October 2020
Orbit: 744 x 747 km, 108.0° (Epoch: 28 November)

Event Time Altitude Azimuth Distance (km) Brightness Sun altitude
Exits shadow 19:54:41 19° 226° (SW) 1,715 4.5 -32.1°
Maximum altitude 19:56:19 23° 253° (WSW) 1,570 4.5 -32.3°
Drops below altitude 10° 20:00:11 10° 305° (NW) 2,273 5.8 -32.9°
Sets 20:02:56 0° 320° (NW) 3,203 6.6 -33.2°
